Time,TemperatureF,DewpointF,PressureIn,WindDirection,WindDirectionDegrees,WindSpeedMPH,WindSpeedGustMPH,Humidity,HourlyPrecipIn,Conditions,Clouds,dailyrainin,SoftwareType,DateUTC
2013-05-20 00:05:00,43.1,35.0,29.91,ESE,115,0.0,3.0,73,0.00,,,0.09,Wunderground v.1.15,2013-05-20 06:05:00,
2013-05-20 00:10:00,43.0,34.9,29.91,ESE,115,0.0,3.0,73,0.00,,,0.00,Wunderground v.1.15,2013-05-20 06:10:00,
2013-05-20 00:15:00,43.0,35.3,29.91,ESE,115,0.0,0.0,74,0.00,,,0.00,Wunderground v.1.15,2013-05-20 06:15:00,
2013-05-20 00:20:00,42.9,35.2,29.91,ESE,115,0.0,0.0,74,0.00,,,0.00,Wunderground v.1.15,2013-05-20 06:20:00,
2013-05-20 00:25:00,42.9,35.5,29.91,ESE,115,0.0,0.0,75,0.00,,,0.00,Wunderground v.1.15,2013-05-20 06:25:00,
2013-05-20 00:30:00,42.9,35.9,29.91,ESE,115,0.0,2.0,76,0.00,,,0.00,Wunderground v.1.15,2013-05-20 06:30:00,
2013-05-20 00:40:00,42.6,35.6,29.91,East,91,1.0,5.0,76,0.00,,,0.00,Wunderground v.1.15,2013-05-20 06:40:00,
2013-05-20 00:45:00,42.5,35.8,29.91,East,91,0.0,0.0,77,0.00,,,0.00,Wunderground v.1.15,2013-05-20 06:45:00,
2013-05-20 00:50:00,42.3,35.6,29.91,East,92,0.0,0.0,77,0.00,,,0.00,Wunderground v.1.15,2013-05-20 06:50:00,
2013-05-20 00:55:00,42.2,35.5,29.91,East,92,0.0,0.0,77,0.00,,,0.00,Wunderground v.1.15,2013-05-20 06:55:00,
2013-05-20 01:00:00,42.0,35.0,29.91,East,92,0.0,0.0,76,0.00,,,0.00,Wunderground v.1.15,2013-05-20 07:00:00,
2013-05-20 01:05:00,41.8,35.1,29.91,East,92,0.0,4.0,77,0.00,,,0.00,Wunderground v.1.15,2013-05-20 07:05:00,
2013-05-20 01:10:00,41.5,34.8,29.90,East,91,0.0,0.0,77,0.00,,,0.00,Wunderground v.1.15,2013-05-20 07:10:00,
2013-05-20 01:15:00,41.3,35.0,29.91,East,92,0.0,0.0,78,0.00,,,0.00,Wunderground v.1.15,2013-05-20 07:15:00,
2013-05-20 01:20:00,41.1,34.8,29.90,East,91,0.0,1.0,78,0.00,,,0.00,Wunderground v.1.15,2013-05-20 07:20:00,
2013-05-20 01:30:00,41.1,34.4,29.90,East,96,1.0,1.0,77,0.00,,,0.00,Wunderground v.1.15,2013-05-20 07:30:00,
2013-05-20 01:40:00,41.5,34.8,29.90,East,96,2.0,2.0,77,0.00,,,0.00,Wunderground v.1.15,2013-05-20 07:40:00,
2013-05-20 01:45:00,41.6,34.6,29.90,East,98,2.0,4.0,76,0.00,,,0.00,Wunderground v.1.15,2013-05-20 07:45:00,
2013-05-20 01:50:00,41.6,34.6,29.90,ESE,111,1.0,5.0,76,0.00,,,0.00,Wunderground v.1.15,2013-05-20 07:50:00,
2013-05-20 02:00:00,41.6,34.9,29.90,ESE,111,1.0,1.0,77,0.00,,,0.00,Wunderground v.1.15,2013-05-20 08:00:00,
2013-05-20 02:10:00,41.4,35.1,29.90,ESE,111,1.0,6.0,78,0.00,,,0.00,Wunderground v.1.15,2013-05-20 08:10:00,
2013-05-20 02:15:00,41.4,35.1,29.90,ESE,111,1.0,1.0,78,0.00,,,0.00,Wunderground v.1.15,2013-05-20 08:15:00,
2013-05-20 02:20:00,41.4,35.1,29.90,ESE,111,0.0,1.0,78,0.00,,,0.00,Wunderground v.1.15,2013-05-20 08:20:00,
2013-05-20 02:30:00,41.5,35.2,29.90,ESE,111,0.0,0.0,78,0.00,,,0.00,Wunderground v.1.15,2013-05-20 08:30:00,
2013-05-20 02:40:00,41.6,34.9,29.89,ESE,111,0.0,0.0,77,0.00,,,0.00,Wunderground v.1.15,2013-05-20 08:40:00,
2013-05-20 02:45:00,41.5,35.2,29.89,ESE,111,1.0,1.0,78,0.00,,,0.00,Wunderground v.1.15,2013-05-20 08:45:00,
2013-05-20 02:50:00,41.6,35.2,29.89,ESE,111,1.0,1.0,78,0.00,,,0.00,Wunderground v.1.15,2013-05-20 08:50:00,
2013-05-20 02:55:00,41.6,35.2,29.89,ESE,111,0.0,0.0,78,0.00,,,0.00,Wunderground v.1.15,2013-05-20 08:55:00,
2013-05-20 03:00:00,41.5,35.2,29.89,ESE,111,0.0,7.0,78,0.00,,,0.00,Wunderground v.1.15,2013-05-20 09:00:00,
2013-05-20 03:05:00,41.4,35.1,29.89,ESE,111,0.0,7.0,78,0.00,,,0.00,Wunderground v.1.15,2013-05-20 09:05:00,
2013-05-20 03:10:00,41.2,34.9,29.89,ESE,111,0.0,7.0,78,0.00,,,0.00,Wunderground v.1.15,2013-05-20 09:10:00,
2013-05-20 03:15:00,41.1,35.4,29.89,ESE,111,0.0,0.0,80,0.00,,,0.00,Wunderground v.1.15,2013-05-20 09:15:00,
2013-05-20 03:20:00,41.0,35.3,29.89,ESE,111,0.0,0.0,80,0.00,,,0.00,Wunderground v.1.15,2013-05-20 09:20:00,
2013-05-20 03:30:00,40.9,34.9,29.90,ESE,111,0.0,0.0,79,0.00,,,0.00,Wunderground v.1.15,2013-05-20 09:30:00,
2013-05-20 03:35:00,40.8,34.8,29.90,ESE,111,0.0,0.0,79,0.00,,,0.00,Wunderground v.1.15,2013-05-20 09:35:00,
2013-05-20 03:40:00,40.6,34.6,29.90,ESE,111,0.0,0.0,79,0.00,,,0.00,Wunderground v.1.15,2013-05-20 09:40:00,
2013-05-20 03:45:00,40.5,34.8,29.90,ESE,111,0.0,0.0,80,0.00,,,0.00,Wunderground v.1.15,2013-05-20 09:45:00,
2013-05-20 03:50:00,40.4,34.7,29.90,ESE,111,0.0,0.0,80,0.00,,,0.00,Wunderground v.1.15,2013-05-20 09:50:00,
2013-05-20 03:55:00,40.4,35.0,29.90,ESE,111,0.0,0.0,81,0.00,,,0.00,Wunderground v.1.15,2013-05-20 09:55:00,
2013-05-20 04:05:00,40.5,35.1,29.90,ESE,111,0.0,3.0,81,0.00,,,0.00,Wunderground v.1.15,2013-05-20 10:05:00,
2013-05-20 04:10:00,40.6,35.2,29.90,ESE,111,0.0,3.0,81,0.00,,,0.00,Wunderground v.1.15,2013-05-20 10:10:00,
2013-05-20 04:20:00,40.7,35.3,29.90,ESE,111,0.0,0.0,81,0.00,,,0.00,Wunderground v.1.15,2013-05-20 10:20:00,
2013-05-20 04:25:00,40.7,35.0,29.90,ESE,111,0.0,0.0,80,0.00,,,0.00,Wunderground v.1.15,2013-05-20 10:25:00,
2013-05-20 04:30:00,40.7,35.0,29.91,ESE,111,0.0,0.0,80,0.00,,,0.00,Wunderground v.1.15,2013-05-20 10:30:00,
2013-05-20 04:40:00,40.7,35.3,29.91,ESE,111,0.0,0.0,81,0.00,,,0.00,Wunderground v.1.15,2013-05-20 10:40:00,
2013-05-20 04:50:00,40.6,35.2,29.91,ESE,111,0.0,0.0,81,0.00,,,0.00,Wunderground v.1.15,2013-05-20 10:50:00,
2013-05-20 04:55:00,40.6,34.9,29.91,ESE,111,0.0,0.0,80,0.00,,,0.00,Wunderground v.1.15,2013-05-20 10:55:00,
2013-05-20 05:00:00,40.6,35.2,29.91,ESE,111,0.0,0.0,81,0.00,,,0.00,Wunderground v.1.15,2013-05-20 11:00:00,
2013-05-20 05:05:00,40.6,35.2,29.91,ESE,111,0.0,2.0,81,0.00,,,0.00,Wunderground v.1.15,2013-05-20 11:05:00,
2013-05-20 05:10:00,40.6,35.2,29.91,ESE,111,0.0,0.0,81,0.00,,,0.00,Wunderground v.1.15,2013-05-20 11:10:00,
2013-05-20 05:15:00,40.7,35.0,29.91,ESE,111,0.0,0.0,80,0.00,,,0.00,Wunderground v.1.15,2013-05-20 11:15:00,
2013-05-20 05:20:00,40.8,35.1,29.91,ESE,111,0.0,0.0,80,0.00,,,0.00,Wunderground v.1.15,2013-05-20 11:20:00,
2013-05-20 05:30:00,41.1,35.7,29.92,ESE,111,0.0,0.0,81,0.00,,,0.00,Wunderground v.1.15,2013-05-20 11:30:00,
2013-05-20 05:40:00,41.2,35.5,29.91,ESE,111,0.0,0.0,80,0.00,,,0.00,Wunderground v.1.15,2013-05-20 11:40:00,
2013-05-20 05:50:00,41.2,35.8,29.92,ESE,111,0.0,0.0,81,0.00,,,0.00,Wunderground v.1.15,2013-05-20 11:50:00,
2013-05-20 05:55:00,41.2,35.8,29.92,ESE,111,0.0,0.0,81,0.00,,,0.00,Wunderground v.1.15,2013-05-20 11:55:00,
2013-05-20 06:10:00,41.2,35.2,29.92,ESE,111,1.0,3.0,79,0.00,,,0.00,Wunderground v.1.15,2013-05-20 12:10:00,
2013-05-20 06:20:00,41.3,35.3,29.92,ESE,111,1.0,2.0,79,0.00,,,0.00,Wunderground v.1.15,2013-05-20 12:20:00,
2013-05-20 06:25:00,41.3,35.3,29.92,ESE,111,1.0,1.0,79,0.00,,,0.00,Wunderground v.1.15,2013-05-20 12:25:00,
2013-05-20 06:30:00,41.4,35.7,29.92,ESE,111,1.0,2.0,80,0.00,,,0.00,Wunderground v.1.15,2013-05-20 12:30:00,
2013-05-20 06:35:00,41.4,35.4,29.92,ESE,111,1.0,1.0,79,0.00,,,0.00,Wunderground v.1.15,2013-05-20 12:35:00,
2013-05-20 06:40:00,41.5,35.5,29.92,ESE,111,1.0,1.0,79,0.00,,,0.00,Wunderground v.1.15,2013-05-20 12:40:00,
2013-05-20 06:45:00,41.6,35.9,29.92,ESE,111,0.0,0.0,80,0.00,,,0.00,Wunderground v.1.15,2013-05-20 12:45:00,
2013-05-20 06:50:00,41.9,36.8,29.92,ESE,111,0.0,1.0,82,0.00,,,0.00,Wunderground v.1.15,2013-05-20 12:50:00,
2013-05-20 06:55:00,41.9,36.8,29.92,ESE,111,0.0,0.0,82,0.00,,,0.00,Wunderground v.1.15,2013-05-20 12:55:00,
2013-05-20 07:00:00,42.0,36.9,29.93,ESE,111,1.0,1.0,82,0.00,,,0.00,Wunderground v.1.15,2013-05-20 13:00:00,
2013-05-20 07:10:00,42.2,37.4,29.93,ESE,111,0.0,0.0,83,0.00,,,0.00,Wunderground v.1.15,2013-05-20 13:10:00,
2013-05-20 07:15:00,42.4,37.3,29.93,ESE,111,0.0,0.0,82,0.00,,,0.00,Wunderground v.1.15,2013-05-20 13:15:00,
2013-05-20 07:20:00,42.7,37.9,29.93,ESE,111,0.0,0.0,83,0.00,,,0.00,Wunderground v.1.15,2013-05-20 13:20:00,
2013-05-20 07:25:00,42.9,37.8,29.93,ESE,111,0.0,0.0,82,0.00,,,0.00,Wunderground v.1.15,2013-05-20 13:25:00,
2013-05-20 07:30:00,43.0,37.9,29.93,ESE,111,0.0,0.0,82,0.00,,,0.00,Wunderground v.1.15,2013-05-20 13:30:00,
2013-05-20 07:35:00,43.1,37.3,29.93,ESE,111,0.0,0.0,80,0.00,,,0.00,Wunderground v.1.15,2013-05-20 13:35:00,
2013-05-20 07:40:00,43.3,37.9,29.93,ESE,111,0.0,0.0,81,0.00,,,0.00,Wunderground v.1.15,2013-05-20 13:40:00,
2013-05-20 07:45:00,43.4,37.6,29.93,ESE,111,0.0,0.0,80,0.00,,,0.00,Wunderground v.1.15,2013-05-20 13:45:00,
2013-05-20 07:50:00,43.5,37.7,29.93,ESE,111,0.0,0.0,80,0.00,,,0.00,Wunderground v.1.15,2013-05-20 13:50:00,
2013-05-20 07:55:00,43.6,37.8,29.93,ESE,111,0.0,0.0,80,0.00,,,0.00,Wunderground v.1.15,2013-05-20 13:55:00,
2013-05-20 08:00:00,44.1,38.3,29.93,ESE,111,0.0,0.0,80,0.00,,,0.00,Wunderground v.1.15,2013-05-20 14:00:00,
2013-05-20 08:05:00,44.6,38.5,29.93,ESE,111,0.0,5.0,79,0.00,,,0.00,Wunderground v.1.15,2013-05-20 14:05:00,
2013-05-20 08:10:00,45.1,38.6,29.93,ESE,111,0.0,0.0,78,0.00,,,0.00,Wunderground v.1.15,2013-05-20 14:10:00,
2013-05-20 08:15:00,45.7,38.9,29.93,ESE,111,0.0,1.0,77,0.00,,,0.00,Wunderground v.1.15,2013-05-20 14:15:00,
2013-05-20 08:20:00,46.3,39.1,29.93,ESE,111,0.0,0.0,76,0.00,,,0.00,Wunderground v.1.15,2013-05-20 14:20:00,
2013-05-20 08:25:00,46.9,39.0,29.93,ESE,111,0.0,0.0,74,0.00,,,0.00,Wunderground v.1.15,2013-05-20 14:25:00,
2013-05-20 08:30:00,47.6,39.0,29.93,ESE,111,0.0,0.0,72,0.00,,,0.00,Wunderground v.1.15,2013-05-20 14:30:00,
2013-05-20 08:35:00,48.2,38.1,29.93,ESE,111,0.0,0.0,68,0.00,,,0.00,Wunderground v.1.15,2013-05-20 14:35:00,
2013-05-20 08:40:00,48.8,38.3,29.92,ESE,111,0.0,0.0,67,0.00,,,0.00,Wunderground v.1.15,2013-05-20 14:40:00,
2013-05-20 08:45:00,49.2,37.9,29.92,ESE,111,0.0,0.0,65,0.00,,,0.00,Wunderground v.1.15,2013-05-20 14:45:00,
2013-05-20 08:50:00,49.5,37.8,29.92,ESE,111,1.0,1.0,64,0.00,,,0.00,Wunderground v.1.15,2013-05-20 14:50:00,
2013-05-20 08:55:00,49.6,38.3,29.92,ESE,111,0.0,1.0,65,0.00,,,0.00,Wunderground v.1.15,2013-05-20 14:55:00,
2013-05-20 09:05:00,50.1,39.2,29.92,ESE,111,0.0,2.0,66,0.00,,,0.00,Wunderground v.1.15,2013-05-20 15:05:00,
2013-05-20 09:10:00,50.5,39.2,29.92,ESE,111,0.0,2.0,65,0.00,,,0.00,Wunderground v.1.15,2013-05-20 15:10:00,
2013-05-20 09:20:00,50.6,37.6,29.92,ENE,61,2.0,3.0,61,0.00,,,0.00,Wunderground v.1.15,2013-05-20 15:20:00,
2013-05-20 09:25:00,50.6,37.2,29.92,ENE,59,2.0,3.0,60,0.00,,,0.00,Wunderground v.1.15,2013-05-20 15:25:00,
2013-05-20 09:30:00,51.0,38.0,29.92,ENE,57,2.0,3.0,61,0.00,,,0.00,Wunderground v.1.15,2013-05-20 15:30:00,
2013-05-20 09:40:00,52.2,37.4,29.92,NNE,25,2.0,3.0,57,0.00,,,0.00,Wunderground v.1.15,2013-05-20 15:40:00,
2013-05-20 09:45:00,52.3,37.1,29.92,North,355,2.0,2.0,56,0.00,,,0.00,Wunderground v.1.15,2013-05-20 15:45:00,
2013-05-20 09:50:00,52.4,36.2,29.92,North,360,3.0,3.0,54,0.00,,,0.00,Wunderground v.1.15,2013-05-20 15:50:00,
2013-05-20 10:05:00,52.5,35.4,29.92,NW,325,4.0,4.0,52,0.00,,,0.00,Wunderground v.1.15,2013-05-20 16:05:00,
2013-05-20 10:10:00,52.6,36.4,29.92,NW,318,3.0,4.0,54,0.00,,,0.00,Wunderground v.1.15,2013-05-20 16:10:00,
2013-05-20 10:15:00,52.7,35.6,29.92,NW,325,3.0,3.0,52,0.00,,,0.00,Wunderground v.1.15,2013-05-20 16:15:00,
2013-05-20 10:20:00,52.3,35.2,29.92,North,350,4.0,6.0,52,0.00,,,0.00,Wunderground v.1.15,2013-05-20 16:20:00,
2013-05-20 10:25:00,51.8,35.7,29.92,NW,324,4.0,4.0,54,0.00,,,0.00,Wunderground v.1.15,2013-05-20 16:25:00,
2013-05-20 10:30:00,51.3,35.2,29.92,NNW,336,3.0,4.0,54,0.00,,,0.00,Wunderground v.1.15,2013-05-20 16:30:00,
2013-05-20 10:35:00,51.3,36.1,29.92,NNW,327,3.0,3.0,56,0.00,,,0.00,Wunderground v.1.15,2013-05-20 16:35:00,
2013-05-20 10:40:00,51.2,37.4,29.92,NNW,337,3.0,3.0,59,0.00,,,0.00,Wunderground v.1.15,2013-05-20 16:40:00,
2013-05-20 10:45:00,51.0,37.2,29.92,NW,311,3.0,9.0,59,0.00,,,0.00,Wunderground v.1.15,2013-05-20 16:45:00,
2013-05-20 10:50:00,50.6,37.6,29.92,North,355,4.0,9.0,61,0.00,,,0.00,Wunderground v.1.15,2013-05-20 16:50:00,
2013-05-20 11:00:00,51.8,36.6,29.92,NW,319,5.0,5.0,56,0.00,,,0.00,Wunderground v.1.15,2013-05-20 17:00:00,
2013-05-20 11:05:00,51.9,36.7,29.92,NNW,333,6.0,6.0,56,0.00,,,0.00,Wunderground v.1.15,2013-05-20 17:05:00,
2013-05-20 11:10:00,51.9,36.7,29.92,North,355,5.0,5.0,56,0.00,,,0.00,Wunderground v.1.15,2013-05-20 17:10:00,
2013-05-20 11:15:00,52.1,36.4,29.92,NW,320,5.0,5.0,55,0.00,,,0.00,Wunderground v.1.15,2013-05-20 17:15:00,
2013-05-20 11:20:00,53.0,36.8,29.92,WNW,290,5.0,8.0,54,0.00,,,0.00,Wunderground v.1.15,2013-05-20 17:20:00,
2013-05-20 11:25:00,53.5,37.3,29.92,NNW,329,5.0,8.0,54,0.00,,,0.00,Wunderground v.1.15,2013-05-20 17:25:00,
2013-05-20 11:30:00,53.5,36.8,29.91,North,350,5.0,11.0,53,0.00,,,0.00,Wunderground v.1.15,2013-05-20 17:30:00,
2013-05-20 11:35:00,53.3,37.5,29.91,NNW,342,4.0,11.0,55,0.00,,,0.00,Wunderground v.1.15,2013-05-20 17:35:00,
2013-05-20 11:40:00,53.2,38.8,29.91,NNW,333,3.0,3.0,58,0.00,,,0.00,Wunderground v.1.15,2013-05-20 17:40:00,
2013-05-20 11:45:00,53.0,39.9,29.91,NNW,344,2.0,3.0,61,0.00,,,0.00,Wunderground v.1.15,2013-05-20 17:45:00,
2013-05-20 11:50:00,52.3,39.7,29.91,NNW,334,3.0,4.0,62,0.00,,,0.00,Wunderground v.1.15,2013-05-20 17:50:00,
2013-05-20 11:55:00,51.8,40.4,29.91,WNW,301,3.0,9.0,65,0.00,,,0.01,Wunderground v.1.15,2013-05-20 17:55:00,
2013-05-20 12:05:00,48.7,40.1,29.92,NNW,342,6.0,6.0,72,0.00,,,0.01,Wunderground v.1.15,2013-05-20 18:05:00,
2013-05-20 12:10:00,47.7,40.5,29.92,NNW,337,3.0,6.0,76,0.04,,,0.02,Wunderground v.1.15,2013-05-20 18:10:00,
2013-05-20 12:20:00,47.0,41.5,29.92,NNW,337,0.0,2.0,81,0.07,,,0.03,Wunderground v.1.15,2013-05-20 18:20:00,
2013-05-20 12:25:00,47.2,41.7,29.91,NNW,337,0.0,0.0,81,0.05,,,0.03,Wunderground v.1.15,2013-05-20 18:25:00,
2013-05-20 12:30:00,48.1,44.4,29.91,NNW,337,0.0,0.0,87,0.00,,,0.03,Wunderground v.1.15,2013-05-20 18:30:00,
2013-05-20 12:35:00,49.2,46.4,29.91,NNW,337,1.0,1.0,90,0.00,,,0.03,Wunderground v.1.15,2013-05-20 18:35:00,
2013-05-20 12:40:00,50.3,44.4,29.90,South,183,2.0,2.0,80,0.00,,,0.03,Wunderground v.1.15,2013-05-20 18:40:00,
2013-05-20 12:45:00,51.3,44.3,29.90,South,183,2.0,2.0,77,0.00,,,0.03,Wunderground v.1.15,2013-05-20 18:45:00,
2013-05-20 12:50:00,52.4,44.4,29.90,South,183,1.0,2.0,74,0.00,,,0.03,Wunderground v.1.15,2013-05-20 18:50:00,
2013-05-20 12:55:00,53.1,42.0,29.90,South,186,1.0,1.0,66,0.00,,,0.03,Wunderground v.1.15,2013-05-20 18:55:00,
2013-05-20 13:00:00,53.9,42.8,29.89,South,190,1.0,1.0,66,0.00,,,0.03,Wunderground v.1.15,2013-05-20 19:00:00,
2013-05-20 13:05:00,54.3,42.8,29.89,SSW,194,1.0,4.0,65,0.00,,,0.03,Wunderground v.1.15,2013-05-20 19:05:00,
2013-05-20 13:10:00,54.6,40.1,29.89,WSW,247,1.0,3.0,58,0.00,,,0.03,Wunderground v.1.15,2013-05-20 19:10:00,
2013-05-20 13:15:00,54.5,40.0,29.89,NW,313,2.0,3.0,58,0.00,,,0.03,Wunderground v.1.15,2013-05-20 19:15:00,
2013-05-20 13:20:00,54.0,40.0,29.89,North,355,3.0,3.0,59,0.00,,,0.03,Wunderground v.1.15,2013-05-20 19:20:00,
2013-05-20 13:25:00,53.9,39.9,29.89,NNW,341,3.0,3.0,59,0.00,,,0.03,Wunderground v.1.15,2013-05-20 19:25:00,
2013-05-20 13:30:00,54.1,39.2,29.89,NNW,340,3.0,5.0,57,0.00,,,0.03,Wunderground v.1.15,2013-05-20 19:30:00,
2013-05-20 13:35:00,53.7,39.3,29.89,North,355,5.0,9.0,58,0.00,,,0.03,Wunderground v.1.15,2013-05-20 19:35:00,
2013-05-20 13:40:00,52.9,39.4,29.89,NW,325,7.0,7.0,60,0.00,,,0.03,Wunderground v.1.15,2013-05-20 19:40:00,
2013-05-20 13:45:00,52.8,38.9,29.89,North,5,7.0,8.0,59,0.00,,,0.03,Wunderground v.1.15,2013-05-20 19:45:00,
2013-05-20 13:50:00,52.1,40.3,29.89,NNW,338,7.0,9.0,64,0.00,,,0.03,Wunderground v.1.15,2013-05-20 19:50:00,
2013-05-20 13:55:00,51.4,39.6,29.90,North,355,8.0,10.0,64,0.00,,,0.03,Wunderground v.1.15,2013-05-20 19:55:00,
2013-05-20 14:00:00,50.3,40.9,29.90,North,355,7.0,7.0,70,0.00,,,0.04,Wunderground v.1.15,2013-05-20 20:00:00,
2013-05-20 14:05:00,49.2,40.2,29.90,NNW,346,7.0,7.0,71,0.00,,,0.04,Wunderground v.1.15,2013-05-20 20:05:00,
2013-05-20 14:10:00,47.7,39.5,29.90,North,355,7.0,7.0,73,0.00,,,0.04,Wunderground v.1.15,2013-05-20 20:10:00,
2013-05-20 14:15:00,47.1,39.6,29.90,North,355,7.0,7.0,75,0.00,,,0.04,Wunderground v.1.15,2013-05-20 20:15:00,
2013-05-20 14:20:00,47.0,39.5,29.90,North,360,7.0,7.0,75,0.00,,,0.04,Wunderground v.1.15,2013-05-20 20:20:00,
2013-05-20 14:25:00,47.5,40.0,29.90,North,360,5.0,5.0,75,0.00,,,0.04,Wunderground v.1.15,2013-05-20 20:25:00,
2013-05-20 14:30:00,48.5,41.3,29.90,NNE,24,3.0,5.0,76,0.00,,,0.04,Wunderground v.1.15,2013-05-20 20:30:00,
2013-05-20 14:35:00,49.4,41.5,29.90,NNE,24,2.0,3.0,74,0.00,,,0.04,Wunderground v.1.15,2013-05-20 20:35:00,
2013-05-20 14:40:00,50.6,43.0,29.90,SE,134,2.0,3.0,75,0.00,,,0.04,Wunderground v.1.15,2013-05-20 20:40:00,
2013-05-20 14:50:00,51.7,43.0,29.90,SE,142,3.0,4.0,72,0.00,,,0.04,Wunderground v.1.15,2013-05-20 20:50:00,
2013-05-20 14:55:00,52.4,42.5,29.90,SE,144,3.0,5.0,69,0.00,,,0.04,Wunderground v.1.15,2013-05-20 20:55:00,
2013-05-20 15:05:00,53.0,40.7,29.90,SE,134,3.0,17.0,63,0.00,,,0.04,Wunderground v.1.15,2013-05-20 21:05:00,
2013-05-20 15:10:00,52.6,39.1,29.90,SE,135,3.0,17.0,60,0.00,,,0.04,Wunderground v.1.15,2013-05-20 21:10:00,
2013-05-20 15:15:00,52.1,40.7,29.90,SE,135,2.0,2.0,65,0.00,,,0.04,Wunderground v.1.15,2013-05-20 21:15:00,
2013-05-20 15:20:00,51.2,41.0,29.90,SE,132,1.0,2.0,68,0.00,,,0.05,Wunderground v.1.15,2013-05-20 21:20:00,
2013-05-20 15:25:00,50.4,41.7,29.90,SE,131,2.0,2.0,72,0.00,,,0.05,Wunderground v.1.15,2013-05-20 21:25:00,
2013-05-20 15:30:00,49.5,41.6,29.90,SE,130,1.0,2.0,74,0.00,,,0.05,Wunderground v.1.15,2013-05-20 21:30:00,
2013-05-20 15:35:00,49.2,42.0,29.90,SE,130,1.0,1.0,76,0.00,,,0.05,Wunderground v.1.15,2013-05-20 21:35:00,
2013-05-20 15:40:00,49.0,43.4,29.89,SE,130,1.0,2.0,81,0.00,,,0.06,Wunderground v.1.15,2013-05-20 21:40:00,
2013-05-20 15:45:00,48.7,42.5,29.90,SE,130,1.0,1.0,79,0.00,,,0.06,Wunderground v.1.15,2013-05-20 21:45:00,
2013-05-20 15:50:00,48.3,42.4,29.91,SE,130,1.0,1.0,80,0.51,,,0.08,Wunderground v.1.15,2013-05-20 21:50:00,
2013-05-20 15:55:00,48.0,42.1,29.92,SE,130,0.0,0.0,80,0.69,,,0.13,Wunderground v.1.15,2013-05-20 21:55:00,
2013-05-20 16:05:00,46.4,40.6,29.91,SE,130,0.0,17.0,80,0.19,,,0.18,Wunderground v.1.15,2013-05-20 22:05:00,
2013-05-20 16:10:00,46.0,41.7,29.91,SE,130,0.0,17.0,85,0.07,,,0.18,Wunderground v.1.15,2013-05-20 22:10:00,
2013-05-20 16:15:00,45.9,42.2,29.91,SE,131,1.0,1.0,87,0.05,,,0.18,Wunderground v.1.15,2013-05-20 22:15:00,
2013-05-20 16:20:00,46.2,42.8,29.91,SE,131,1.0,1.0,88,0.00,,,0.18,Wunderground v.1.15,2013-05-20 22:20:00,
2013-05-20 16:25:00,46.9,43.8,29.91,SE,131,1.0,2.0,89,0.00,,,0.18,Wunderground v.1.15,2013-05-20 22:25:00,
2013-05-20 16:30:00,48.0,45.2,29.91,SE,132,1.0,2.0,90,0.00,,,0.18,Wunderground v.1.15,2013-05-20 22:30:00,
2013-05-20 16:40:00,48.3,43.7,29.91,SE,132,1.0,1.0,84,0.00,,,0.18,Wunderground v.1.15,2013-05-20 22:40:00,
2013-05-20 16:50:00,48.3,43.1,29.91,SE,128,1.0,1.0,82,0.00,,,0.18,Wunderground v.1.15,2013-05-20 22:50:00,
2013-05-20 17:00:00,47.9,43.3,29.91,SE,126,2.0,2.0,84,0.00,,,0.18,Wunderground v.1.15,2013-05-20 23:00:00,
2013-05-20 17:10:00,48.0,43.4,29.91,SE,125,1.0,1.0,84,0.00,,,0.18,Wunderground v.1.15,2013-05-20 23:10:00,
2013-05-20 17:15:00,48.0,43.1,29.91,SE,126,1.0,2.0,83,0.00,,,0.18,Wunderground v.1.15,2013-05-20 23:15:00,
2013-05-20 17:20:00,48.1,43.2,29.92,SE,125,1.0,2.0,83,0.00,,,0.18,Wunderground v.1.15,2013-05-20 23:20:00,
2013-05-20 17:25:00,48.1,42.9,29.92,SE,125,1.0,4.0,82,0.00,,,0.19,Wunderground v.1.15,2013-05-20 23:25:00,
2013-05-20 17:30:00,48.1,42.9,29.92,SE,125,2.0,2.0,82,0.00,,,0.19,Wunderground v.1.15,2013-05-20 23:30:00,
2013-05-20 17:35:00,48.1,42.9,29.92,SE,125,2.0,2.0,82,0.00,,,0.19,Wunderground v.1.15,2013-05-20 23:35:00,
2013-05-20 17:40:00,48.4,43.2,29.92,SE,125,1.0,1.0,82,0.00,,,0.19,Wunderground v.1.15,2013-05-20 23:40:00,
2013-05-20 17:45:00,48.6,42.4,29.92,ESE,121,1.0,1.0,79,0.00,,,0.19,Wunderground v.1.15,2013-05-20 23:45:00,
2013-05-20 17:50:00,48.5,42.3,29.92,ESE,121,2.0,2.0,79,0.00,,,0.19,Wunderground v.1.15,2013-05-20 23:50:00,
2013-05-20 17:55:00,48.4,42.5,29.92,ESE,121,2.0,2.0,80,0.00,,,0.19,Wunderground v.1.15,2013-05-20 23:55:00,
2013-05-20 18:01:00,48.3,42.1,29.92,ESE,121,1.0,6.0,79,0.00,,,0.19,Wunderground v.1.15,2013-05-21 00:01:00,
2013-05-20 18:05:00,48.2,43.3,29.92,ESE,121,2.0,6.0,83,0.00,,,0.19,Wunderground v.1.15,2013-05-21 00:05:00,
2013-05-20 18:10:00,48.3,42.4,29.91,ESE,121,1.0,6.0,80,0.00,,,0.19,Wunderground v.1.15,2013-05-21 00:10:00,
2013-05-20 18:15:00,48.5,43.6,29.91,ESE,121,1.0,1.0,83,0.00,,,0.19,Wunderground v.1.15,2013-05-21 00:15:00,
2013-05-20 18:20:00,49.0,43.4,29.91,ESE,121,1.0,1.0,81,0.00,,,0.19,Wunderground v.1.15,2013-05-21 00:20:00,
2013-05-20 18:25:00,49.4,42.8,29.91,ESE,121,1.0,1.0,78,0.00,,,0.19,Wunderground v.1.15,2013-05-21 00:25:00,
2013-05-20 18:30:00,49.7,42.8,29.91,ESE,121,1.0,1.0,77,0.00,,,0.19,Wunderground v.1.15,2013-05-21 00:30:00,
2013-05-20 18:40:00,49.7,42.8,29.91,ESE,121,1.0,1.0,77,0.00,,,0.19,Wunderground v.1.15,2013-05-21 00:40:00,
2013-05-20 18:45:00,49.7,42.4,29.91,ESE,121,1.0,1.0,76,0.00,,,0.19,Wunderground v.1.15,2013-05-21 00:45:00,
2013-05-20 18:50:00,49.7,42.8,29.91,ESE,121,1.0,1.0,77,0.00,,,0.19,Wunderground v.1.15,2013-05-21 00:50:00,
2013-05-20 18:55:00,49.8,42.9,29.91,ESE,121,1.0,1.0,77,0.00,,,0.19,Wunderground v.1.15,2013-05-21 00:55:00,
2013-05-20 19:05:00,50.0,43.4,29.91,ESE,121,1.0,1.0,78,0.00,,,0.19,Wunderground v.1.15,2013-05-21 01:05:00,
2013-05-20 19:10:00,49.9,42.6,29.92,ESE,121,1.0,1.0,76,0.00,,,0.19,Wunderground v.1.15,2013-05-21 01:10:00,
2013-05-20 19:15:00,49.7,42.1,29.92,ESE,121,1.0,1.0,75,0.00,,,0.19,Wunderground v.1.15,2013-05-21 01:15:00,
2013-05-20 19:20:00,49.4,41.5,29.92,ESE,121,1.0,1.0,74,0.00,,,0.19,Wunderground v.1.15,2013-05-21 01:20:00,
2013-05-20 19:30:00,49.1,41.2,29.92,ESE,121,1.0,1.0,74,0.00,,,0.19,Wunderground v.1.15,2013-05-21 01:30:00,
2013-05-20 19:35:00,49.2,42.3,29.93,ESE,121,1.0,1.0,77,0.00,,,0.19,Wunderground v.1.15,2013-05-21 01:35:00,
2013-05-20 19:40:00,49.2,42.0,29.93,ESE,121,0.0,2.0,76,0.00,,,0.19,Wunderground v.1.15,2013-05-21 01:40:00,
2013-05-20 19:45:00,49.0,41.8,29.93,ESE,121,1.0,1.0,76,0.00,,,0.19,Wunderground v.1.15,2013-05-21 01:45:00,
2013-05-20 19:50:00,48.6,41.0,29.93,ESE,121,1.0,2.0,75,0.00,,,0.19,Wunderground v.1.15,2013-05-21 01:50:00,
2013-05-20 19:55:00,48.4,40.5,29.93,ESE,121,1.0,1.0,74,0.00,,,0.19,Wunderground v.1.15,2013-05-21 01:55:00,
2013-05-20 20:00:00,48.1,40.9,29.93,ESE,121,1.0,6.0,76,0.00,,,0.19,Wunderground v.1.15,2013-05-21 02:00:00,
2013-05-20 20:05:00,47.9,40.4,29.93,ESE,121,1.0,6.0,75,0.00,,,0.19,Wunderground v.1.15,2013-05-21 02:05:00,
2013-05-20 20:10:00,47.8,40.9,29.93,ESE,121,1.0,6.0,77,0.00,,,0.19,Wunderground v.1.15,2013-05-21 02:10:00,
2013-05-20 20:15:00,47.6,41.4,29.94,ESE,121,0.0,1.0,79,0.00,,,0.19,Wunderground v.1.15,2013-05-21 02:15:00,
2013-05-20 20:20:00,47.4,41.2,29.94,ESE,121,0.0,1.0,79,0.00,,,0.19,Wunderground v.1.15,2013-05-21 02:20:00,
2013-05-20 20:25:00,47.3,40.8,29.93,ESE,121,0.0,1.0,78,0.00,,,0.19,Wunderground v.1.15,2013-05-21 02:25:00,
2013-05-20 20:30:00,47.2,40.0,29.94,ESE,121,1.0,1.0,76,0.00,,,0.19,Wunderground v.1.15,2013-05-21 02:30:00,
2013-05-20 20:35:00,47.2,39.0,29.94,ESE,121,1.0,1.0,73,0.00,,,0.19,Wunderground v.1.15,2013-05-21 02:35:00,
2013-05-20 20:40:00,47.2,40.4,29.95,ESE,121,1.0,1.0,77,0.00,,,0.19,Wunderground v.1.15,2013-05-21 02:40:00,
2013-05-20 20:45:00,47.2,40.4,29.95,ESE,119,1.0,1.0,77,0.00,,,0.19,Wunderground v.1.15,2013-05-21 02:45:00,
2013-05-20 20:50:00,47.1,39.9,29.96,ESE,119,1.0,1.0,76,0.00,,,0.19,Wunderground v.1.15,2013-05-21 02:50:00,
2013-05-20 20:55:00,47.0,39.5,29.96,ESE,119,1.0,2.0,75,0.00,,,0.19,Wunderground v.1.15,2013-05-21 02:55:00,
2013-05-20 21:05:00,46.8,40.0,29.96,ESE,119,1.0,1.0,77,0.00,,,0.19,Wunderground v.1.15,2013-05-21 03:05:00,
2013-05-20 21:10:00,46.6,39.8,29.96,ESE,119,1.0,1.0,77,0.00,,,0.19,Wunderground v.1.15,2013-05-21 03:10:00,
2013-05-20 21:15:00,46.4,39.6,29.97,ESE,119,0.0,0.0,77,0.00,,,0.19,Wunderground v.1.15,2013-05-21 03:15:00,
2013-05-20 21:20:00,46.1,39.3,29.97,ESE,119,0.0,0.0,77,0.00,,,0.19,Wunderground v.1.15,2013-05-21 03:20:00,
2013-05-20 21:25:00,45.8,39.3,29.97,ESE,119,0.0,0.0,78,0.00,,,0.19,Wunderground v.1.15,2013-05-21 03:25:00,
2013-05-20 21:30:00,45.5,38.7,29.98,ESE,119,0.0,0.0,77,0.00,,,0.19,Wunderground v.1.15,2013-05-21 03:30:00,
2013-05-20 21:35:00,45.4,38.3,29.98,ESE,119,1.0,1.0,76,0.00,,,0.19,Wunderground v.1.15,2013-05-21 03:35:00,
2013-05-20 21:40:00,45.2,38.4,29.98,ESE,119,0.0,1.0,77,0.00,,,0.19,Wunderground v.1.15,2013-05-21 03:40:00,
2013-05-20 21:45:00,45.0,37.6,29.98,ESE,119,0.0,0.0,75,0.00,,,0.19,Wunderground v.1.15,2013-05-21 03:45:00,
2013-05-20 21:50:00,44.7,37.9,29.99,ESE,119,1.0,2.0,77,0.00,,,0.19,Wunderground v.1.15,2013-05-21 03:50:00,
2013-05-20 21:55:00,44.6,37.8,29.99,ESE,119,1.0,2.0,77,0.00,,,0.19,Wunderground v.1.15,2013-05-21 03:55:00,
2013-05-20 22:00:00,44.5,37.4,30.00,ESE,118,1.0,1.0,76,0.00,,,0.19,Wunderground v.1.15,2013-05-21 04:00:00,
2013-05-20 22:05:00,44.4,36.6,30.00,ESE,119,0.0,7.0,74,0.00,,,0.19,Wunderground v.1.15,2013-05-21 04:05:00,
2013-05-20 22:10:00,44.4,36.3,30.00,ESE,117,1.0,1.0,73,0.00,,,0.19,Wunderground v.1.15,2013-05-21 04:10:00,
2013-05-20 22:15:00,44.4,37.3,30.00,ESE,117,2.0,2.0,76,0.00,,,0.19,Wunderground v.1.15,2013-05-21 04:15:00,
2013-05-20 22:20:00,44.3,36.9,30.00,ESE,115,2.0,2.0,75,0.00,,,0.19,Wunderground v.1.15,2013-05-21 04:20:00,
2013-05-20 22:25:00,44.2,36.4,30.00,ESE,116,1.0,2.0,74,0.00,,,0.19,Wunderground v.1.15,2013-05-21 04:25:00,
2013-05-20 22:30:00,44.1,36.3,30.00,ESE,115,1.0,1.0,74,0.00,,,0.19,Wunderground v.1.15,2013-05-21 04:30:00,
2013-05-20 22:40:00,43.9,36.1,30.01,ESE,115,0.0,0.0,74,0.00,,,0.19,Wunderground v.1.15,2013-05-21 04:40:00,
2013-05-20 22:45:00,43.7,36.0,30.01,ESE,116,1.0,1.0,74,0.00,,,0.19,Wunderground v.1.15,2013-05-21 04:45:00,
2013-05-20 22:50:00,43.6,36.2,30.01,ESE,112,2.0,3.0,75,0.00,,,0.19,Wunderground v.1.15,2013-05-21 04:50:00,
2013-05-20 22:55:00,43.6,35.9,30.01,ESE,112,2.0,3.0,74,0.00,,,0.19,Wunderground v.1.15,2013-05-21 04:55:00,
2013-05-20 23:05:00,43.6,35.9,30.01,ESE,113,2.0,2.0,74,0.00,,,0.19,Wunderground v.1.15,2013-05-21 05:05:00,
2013-05-20 23:10:00,43.5,36.1,30.01,ESE,109,3.0,3.0,75,0.00,,,0.19,Wunderground v.1.15,2013-05-21 05:10:00,
2013-05-20 23:15:00,43.4,36.3,30.01,ESE,109,1.0,2.0,76,0.00,,,0.19,Wunderground v.1.15,2013-05-21 05:15:00,
2013-05-20 23:20:00,43.2,36.1,30.01,ESE,110,1.0,4.0,76,0.00,,,0.19,Wunderground v.1.15,2013-05-21 05:20:00,
2013-05-20 23:25:00,42.9,35.2,30.01,ESE,105,1.0,3.0,74,0.00,,,0.19,Wunderground v.1.15,2013-05-21 05:25:00,
2013-05-20 23:30:00,42.8,35.1,30.01,ESE,106,2.0,3.0,74,0.00,,,0.19,Wunderground v.1.15,2013-05-21 05:30:00,
2013-05-20 23:35:00,42.7,35.0,30.01,ESE,106,2.0,5.0,74,0.00,,,0.19,Wunderground v.1.15,2013-05-21 05:35:00,
2013-05-20 23:40:00,42.5,34.8,30.01,ESE,106,2.0,5.0,74,0.00,,,0.19,Wunderground v.1.15,2013-05-21 05:40:00,
2013-05-20 23:45:00,42.4,34.7,30.01,ESE,106,3.0,3.0,74,0.00,,,0.19,Wunderground v.1.15,2013-05-21 05:45:00,
2013-05-20 23:50:00,42.3,34.6,30.01,ESE,107,3.0,3.0,74,0.00,,,0.19,Wunderground v.1.15,2013-05-21 05:50:00,
2013-05-20 23:55:00,42.3,34.6,30.01,ESE,106,2.0,4.0,74,0.00,,,0.19,Wunderground v.1.15,2013-05-21 05:55:00,